Location: Barcelona
(41.3829°N, 2.1774°E)
Time: 21:27:06
(UTC+00:00)

ISS - Pass Details

Date: 11 July 2025
Orbit: 413 x 417 km, 51.6° (Epoch: 13 July)

Event Time Altitude Azimuth Distance (km) Brightness Sun altitude
Rises 23:10:11 0° 304° (WNW) 2,355 0.7 -25.7°
Reaches altitude 10° 23:12:59 10° 329° (NNW) 1,492 -0.1 -25.8°
Maximum altitude 23:14:58 15° 6° (N) 1,239 -0.5 -25.9°
Drops below altitude 10° 23:16:57 10° 42° (NE) 1,493 -0.5 -26.0°
Enters shadow 23:19:21 - 65° (ENE) 2,217 0.1 -26.1°
